| time (UTC) | temp F | wind direction | speed MPH | gust MPH | rain 1hr in | rain 24hr in | rain mn in | humidity % | barometer mb |
| 20260905202906 | 65 | 258 | 10.0 | 18.0 | 0.00 | 0.00 | 0.00 | 41 | 1017.2 |
| 20260905201909 | 65 | 284 | 10.0 | 19.0 | 0.00 | 0.00 | 0.00 | 41 | 1017.2 |
| 20260905200906 | 65 | 255 | 8.0 | 19.0 | 0.00 | 0.00 | 0.00 | 43 | 1017.4 |
| 20260905195906 | 65 | 265 | 10.0 | 15.0 | 0.00 | 0.00 | 0.00 | 41 | 1017.4 |
| 20260905194906 | 65 | 258 | 5.0 | 14.0 | 0.00 | 0.00 | 0.00 | 44 | 1017.5 |
| 20260905193906 | 65 | 258 | 7.0 | 13.0 | 0.00 | 0.00 | 0.00 | 38 | 1017.5 |
| 20260905192906 | 65 | 282 | 6.0 | 12.0 | 0.00 | 0.00 | 0.00 | 39 | 1017.6 |
| 20260905191907 | 66 | 263 | 3.0 | 8.0 | 0.00 | 0.00 | 0.00 | 42 | 1017.6 |
| 20260905190908 | 65 | 283 | 2.0 | 11.0 | 0.00 | 0.00 | 0.00 | 45 | 1017.7 |
| 20260905185906 | 65 | 294 | 5.0 | 12.0 | 0.00 | 0.00 | 0.00 | 44 | 1017.9 |
| 20260905184906 | 64 | 269 | 5.0 | 10.0 | 0.00 | 0.00 | 0.00 | 50 | 1017.9 |
| 20260905183906 | 64 | 287 | 4.0 | 9.0 | 0.00 | 0.00 | 0.00 | 48 | 1017.9 |
| 20260905182907 | 63 | 270 | 3.0 | 9.0 | 0.00 | 0.00 | 0.00 | 50 | 1018.0 |
| 20260905181906 | 62 | 231 | 5.0 | 10.0 | 0.00 | 0.00 | 0.00 | 51 | 1018.0 |
| 20260905180906 | 62 | 248 | 7.0 | 11.0 | 0.00 | 0.00 | 0.00 | 48 | 1018.0 |
| 20260905175906 | 63 | 250 | 5.0 | 10.0 | 0.00 | 0.00 | 0.00 | 46 | 1018.1 |
| 20260905174906 | 63 | 214 | 4.0 | 10.0 | 0.00 | 0.00 | 0.00 | 48 | 1018.0 |
| 20260905173906 | 62 | 252 | 4.0 | 10.0 | 0.00 | 0.00 | 0.00 | 48 | 1018.1 |
| 20260905172906 | 62 | 245 | 4.0 | 9.0 | 0.00 | 0.00 | 0.00 | 46 | 1018.1 |
| 20260905171906 | 62 | 266 | 2.0 | 8.0 | 0.00 | 0.00 | 0.00 | 49 | 1018.0 |
| 20260905170906 | 62 | 234 | 3.0 | 8.0 | 0.00 | 0.00 | 0.00 | 48 | 1018.0 |
| 20260905165906 | 61 | 254 | 4.0 | 8.0 | 0.00 | 0.00 | 0.00 | 48 | 1017.9 |
| 20260905164906 | 61 | 255 | 1.0 | 5.0 | 0.00 | 0.00 | 0.00 | 48 | 1017.9 |
| 20260905163906 | 62 | 0 | 0.0 | 8.0 | 0.00 | 0.00 | 0.00 | 47 | 1017.8 |
| 20260905162906 | 62 | 0 | 0.0 | 4.0 | 0.00 | 0.00 | 0.00 | 49 | 1017.7 |
| 20260905161906 | 61 | 0 | 0.0 | 4.0 | 0.00 | 0.00 | 0.00 | 50 | 1017.7 |
| 20260905160906 | 60 | 233 | 1.0 | 4.0 | 0.00 | 0.00 | 0.00 | 51 | 1017.7 |
| 20260905155906 | 59 | 233 | 1.0 | 4.0 | 0.00 | 0.00 | 0.00 | 51 | 1017.6 |
| 20260905154906 | 59 | 0 | 0.0 | 5.0 | 0.00 | 0.00 | 0.00 | 50 | 1017.5 |
| 20260905153906 | 60 | 233 | 1.0 | 4.0 | 0.00 | 0.00 | 0.00 | 49 | 1017.5 |
| 20260905152906 | 60 | 0 | 0.0 | 3.0 | 0.00 | 0.00 | 0.00 | 47 | 1017.5 |
| 20260905151906 | 60 | 0 | 0.0 | 3.0 | 0.00 | 0.00 | 0.00 | 48 | 1017.5 |
| 20260905150906 | 60 | 319 | 1.0 | 4.0 | 0.00 | 0.00 | 0.00 | 49 | 1017.4 |
| 20260905145906 | 59 | 0 | 0.0 | 3.0 | 0.00 | 0.00 | 0.00 | 49 | 1017.3 |
| 20260905144906 | 59 | 319 | 1.0 | 4.0 | 0.00 | 0.00 | 0.00 | 46 | 1017.3 |
| 20260905143906 | 59 | 319 | 1.0 | 5.0 | 0.00 | 0.00 | 0.00 | 44 | 1017.3 |
| 20260905142906 | 58 | 319 | 2.0 | 5.0 | 0.00 | 0.00 | 0.00 | 44 | 1017.2 |
| 20260905141906 | 58 | 328 | 2.0 | 5.0 | 0.00 | 0.00 | 0.00 | 43 | 1017.2 |
| 20260905140906 | 58 | 325 | 2.0 | 8.0 | 0.00 | 0.00 | 0.00 | 38 | 1017.1 |
| 20260905135906 | 58 | 312 | 4.0 | 7.0 | 0.00 | 0.00 | 0.00 | 37 | 1017.0 |
| 20260905134906 | 58 | 315 | 3.0 | 8.0 | 0.00 | 0.00 | 0.00 | 36 | 1016.9 |
| 20260905133906 | 57 | 314 | 3.0 | 7.0 | 0.00 | 0.00 | 0.00 | 38 | 1016.8 |
| 20260905132906 | 57 | 319 | 3.0 | 8.0 | 0.00 | 0.00 | 0.00 | 38 | 1016.7 |
| 20260905131906 | 57 | 314 | 5.0 | 10.0 | 0.00 | 0.00 | 0.00 | 38 | 1016.5 |
| 20260905130906 | 57 | 316 | 5.0 | 9.0 | 0.00 | 0.00 | 0.00 | 38 | 1016.5 |
| 20260905125906 | 57 | 310 | 5.0 | 12.0 | 0.00 | 0.00 | 0.00 | 39 | 1016.4 |
| 20260905124906 | 57 | 306 | 6.0 | 11.0 | 0.00 | 0.00 | 0.00 | 38 | 1016.4 |
| 20260905123910 | 57 | 313 | 5.0 | 10.0 | 0.00 | 0.00 | 0.00 | 38 | 1016.3 |
| 20260905122906 | 57 | 313 | 6.0 | 9.0 | 0.00 | 0.00 | 0.00 | 38 | 1016.3 |
| 20260905121906 | 56 | 306 | 6.0 | 11.0 | 0.00 | 0.00 | 0.00 | 45 | 1016.3 |
| 20260905120906 | 56 | 312 | 7.0 | 10.0 | 0.00 | 0.00 | 0.00 | 47 | 1016.3 |
| 20260905115906 | 56 | 307 | 7.0 | 11.0 | 0.00 | 0.00 | 0.00 | 44 | 1016.3 |
| 20260905114906 | 56 | 309 | 7.0 | 12.0 | 0.00 | 0.00 | 0.00 | 46 | 1016.3 |
| 20260905113906 | 56 | 305 | 8.0 | 12.0 | 0.00 | 0.00 | 0.00 | 47 | 1016.2 |
| 20260905112906 | 56 | 308 | 9.0 | 12.0 | 0.00 | 0.00 | 0.00 | 48 | 1016.2 |
| 20260905111907 | 56 | 306 | 8.0 | 12.0 | 0.00 | 0.00 | 0.00 | 49 | 1016.2 |
| 20260905110409 | 57 | 309 | 8.0 | 13.0 | 0.00 | 0.00 | 0.00 | 45 | 1016.3 |
| 20260905105407 | 57 | 306 | 8.0 | 13.0 | 0.00 | 0.00 | 0.00 | 45 | 1016.3 |
| 20260905104408 | 57 | 304 | 9.0 | 14.0 | 0.00 | 0.00 | 0.00 | 46 | 1016.3 |
| 20260905103408 | 56 | 303 | 10.0 | 14.0 | 0.00 | 0.00 | 0.00 | 48 | 1016.2 |
| 20260905102408 | 56 | 308 | 9.0 | 13.0 | 0.00 | 0.00 | 0.00 | 50 | 1016.3 |
| 20260905101412 | 56 | 308 | 9.0 | 14.0 | 0.00 | 0.00 | 0.00 | 52 | 1016.3 |
| 20260905100407 | 56 | 307 | 8.0 | 12.0 | 0.00 | 0.00 | 0.00 | 53 | 1016.3 |
| 20260905095407 | 56 | 311 | 8.0 | 12.0 | 0.00 | 0.00 | 0.00 | 53 | 1016.3 |
| 20260905094407 | 56 | 316 | 7.0 | 11.0 | 0.00 | 0.00 | 0.00 | 54 | 1016.2 |
| 20260905093413 | 56 | 312 | 9.0 | 12.0 | 0.00 | 0.00 | 0.00 | 55 | 1016.2 |
| 20260905092407 | 56 | 310 | 8.0 | 13.0 | 0.00 | 0.00 | 0.00 | 54 | 1016.3 |
| 20260905091410 | 56 | 312 | 9.0 | 14.0 | 0.00 | 0.00 | 0.00 | 54 | 1016.3 |
| 20260905090411 | 56 | 311 | 9.0 | 14.0 | 0.00 | 0.00 | 0.00 | 54 | 1016.3 |
| 20260905085407 | 56 | 310 | 8.0 | 15.0 | 0.00 | 0.00 | 0.00 | 54 | 1016.3 |
| 20260905084407 | 56 | 305 | 9.0 | 16.0 | 0.00 | 0.00 | 0.00 | 53 | 1016.3 |
| 20260905083407 | 56 | 310 | 10.0 | 14.0 | 0.00 | 0.00 | 0.00 | 53 | 1016.4 |
| 20260905082407 | 56 | 305 | 9.0 | 16.0 | 0.00 | 0.00 | 0.00 | 53 | 1016.5 |
| 20260905081408 | 56 | 302 | 8.0 | 15.0 | 0.00 | 0.00 | 0.00 | 52 | 1016.5 |
| 20260905080407 | 57 | 307 | 8.0 | 12.0 | 0.00 | 0.00 | 0.00 | 52 | 1016.6 |
| 20260905075408 | 57 | 304 | 8.0 | 11.0 | 0.00 | 0.00 | 0.00 | 51 | 1016.6 |
| 20260905074410 | 57 | 299 | 8.0 | 12.0 | 0.00 | 0.00 | 0.00 | 51 | 1016.7 |
| 20260905073407 | 57 | 297 | 8.0 | 13.0 | 0.00 | 0.00 | 0.00 | 51 | 1016.7 |
| 20260905072407 | 57 | 285 | 8.0 | 15.0 | 0.00 | 0.00 | 0.00 | 51 | 1016.7 |
| 20260905071407 | 57 | 276 | 9.0 | 13.0 | 0.00 | 0.00 | 0.00 | 52 | 1016.7 |
| 20260905070407 | 57 | 272 | 9.0 | 13.0 | 0.00 | 0.00 | 0.00 | 52 | 1016.7 |
| 20260905065407 | 58 | 271 | 9.0 | 14.0 | 0.00 | 0.04 | 0.00 | 51 | 1016.7 |
| 20260905064407 | 58 | 269 | 10.0 | 14.0 | 0.00 | 0.05 | 0.00 | 51 | 1016.6 |
| 20260905063407 | 58 | 264 | 9.0 | 15.0 | 0.00 | 0.05 | 0.00 | 51 | 1016.6 |
| 20260905062407 | 58 | 259 | 10.0 | 15.0 | 0.00 | 0.05 | 0.00 | 50 | 1016.7 |
| 20260905061407 | 58 | 251 | 9.0 | 15.0 | 0.00 | 0.05 | 0.00 | 49 | 1016.6 |
| 20260905060407 | 58 | 258 | 9.0 | 13.0 | 0.00 | 0.05 | 0.00 | 50 | 1016.6 |
| 20260905055407 | 58 | 263 | 10.0 | 15.0 | 0.00 | 0.05 | 0.00 | 50 | 1016.6 |
| 20260905054407 | 58 | 251 | 8.0 | 12.0 | 0.00 | 0.05 | 0.00 | 50 | 1016.7 |
| 20260905053408 | 58 | 257 | 7.0 | 12.0 | 0.00 | 0.05 | 0.00 | 50 | 1016.7 |
| 20260905052407 | 58 | 255 | 7.0 | 11.0 | 0.00 | 0.05 | 0.00 | 50 | 1016.8 |
| 20260905051407 | 58 | 266 | 8.0 | 13.0 | 0.00 | 0.05 | 0.00 | 49 | 1016.7 |
| 20260905050407 | 58 | 267 | 10.0 | 13.0 | 0.00 | 0.05 | 0.00 | 49 | 1016.7 |
| 20260905045407 | 58 | 270 | 9.0 | 13.0 | 0.00 | 0.05 | 0.00 | 49 | 1016.7 |
| 20260905044407 | 58 | 262 | 9.0 | 12.0 | 0.00 | 0.05 | 0.00 | 50 | 1016.7 |
| 20260905043407 | 58 | 266 | 8.0 | 12.0 | 0.00 | 0.05 | 0.00 | 50 | 1016.7 |
| 20260905042407 | 58 | 268 | 7.0 | 11.0 | 0.00 | 0.05 | 0.00 | 50 | 1016.8 |
| 20260905041407 | 58 | 259 | 6.0 | 11.0 | 0.00 | 0.05 | 0.00 | 51 | 1016.8 |
| 20260905040407 | 58 | 266 | 6.0 | 11.0 | 0.00 | 0.05 | 0.00 | 50 | 1016.8 |
| 20260905035407 | 58 | 259 | 4.0 | 13.0 | 0.00 | 0.05 | 0.00 | 50 | 1016.8 |
| 20260905034407 | 59 | 271 | 7.0 | 13.0 | 0.00 | 0.05 | 0.00 | 50 | 1016.7 |
| 20260905033408 | 59 | 274 | 8.0 | 14.0 | 0.00 | 0.05 | 0.00 | 50 | 1016.4 |
| 20260905032407 | 59 | 274 | 9.0 | 15.0 | 0.00 | 0.05 | 0.00 | 49 | 1016.3 |
| 20260905031407 | 59 | 276 | 11.0 | 15.0 | 0.00 | 0.05 | 0.00 | 49 | 1016.2 |
| 20260905030407 | 59 | 283 | 9.0 | 14.0 | 0.00 | 0.05 | 0.00 | 49 | 1016.1 |
| 20260905025407 | 59 | 280 | 9.0 | 15.0 | 0.00 | 0.05 | 0.00 | 49 | 1015.9 |
| 20260905024407 | 59 | 277 | 10.0 | 14.0 | 0.00 | 0.05 | 0.00 | 49 | 1015.9 |
| 20260905023406 | 59 | 273 | 7.0 | 17.0 | 0.00 | 0.05 | 0.00 | 48 | 1015.8 |
| 20260905022409 | 59 | 272 | 9.0 | 18.0 | 0.00 | 0.05 | 0.00 | 47 | 1015.7 |
| 20260905021408 | 59 | 262 | 9.0 | 17.0 | 0.00 | 0.05 | 0.00 | 47 | 1015.6 |
| 20260905020407 | 59 | 273 | 10.0 | 15.0 | 0.00 | 0.05 | 0.00 | 47 | 1015.6 |
| 20260905015407 | 59 | 287 | 5.0 | 13.0 | 0.00 | 0.05 | 0.00 | 47 | 1015.6 |
| 20260905014407 | 60 | 296 | 1.0 | 13.0 | 0.00 | 0.05 | 0.00 | 47 | 1015.6 |
| 20260905013407 | 60 | 275 | 7.0 | 13.0 | 0.00 | 0.05 | 0.00 | 45 | 1015.6 |
| 20260905012408 | 61 | 284 | 4.0 | 18.0 | 0.00 | 0.05 | 0.00 | 45 | 1015.5 |
| 20260905011407 | 62 | 269 | 4.0 | 13.0 | 0.00 | 0.05 | 0.00 | 44 | 1015.5 |
| 20260905010407 | 62 | 308 | 5.0 | 15.0 | 0.00 | 0.05 | 0.00 | 44 | 1015.5 |
| 20260905005410 | 61 | 296 | 4.0 | 15.0 | 0.00 | 0.05 | 0.00 | 44 | 1015.5 |
| 20260905004408 | 62 | 238 | 1.0 | 18.0 | 0.00 | 0.05 | 0.00 | 44 | 1015.4 |
| 20260905003407 | 62 | 290 | 8.0 | 19.0 | 0.00 | 0.05 | 0.00 | 43 | 1015.4 |
| 20260905002408 | 63 | 281 | 11.0 | 19.0 | 0.00 | 0.05 | 0.00 | 41 | 1015.3 |
| 20260905001407 | 64 | 258 | 7.0 | 16.0 | 0.00 | 0.05 | 0.00 | 42 | 1015.4 |
| 20260905000409 | 62 | 274 | 7.0 | 12.0 | 0.00 | 0.05 | 0.00 | 42 | 1015.4 |
| 20260904235407 | 62 | 282 | 4.0 | 16.0 | 0.00 | 0.05 | 0.00 | 42 | 1015.6 |
| 20260904234407 | 64 | 276 | 9.0 | 17.0 | 0.00 | 0.05 | 0.00 | 42 | 1015.7 |
| 20260904233407 | 64 | 268 | 9.0 | 15.0 | 0.00 | 0.05 | 0.00 | 41 | 1015.6 |
| 20260904232407 | 63 | 263 | 6.0 | 20.0 | 0.00 | 0.05 | 0.00 | 41 | 1015.7 |
| 20260904230909 | 63 | 294 | 8.0 | 13.0 | 0.00 | 0.05 | 0.05 | 38 | 1015.7 |
| 20260904225907 | 64 | 266 | 7.0 | 17.0 | 0.00 | 0.05 | 0.05 | 38 | 1015.8 |
| 20260904224907 | 64 | 255 | 7.0 | 14.0 | 0.00 | 0.05 | 0.05 | 37 | 1015.8 |
| 20260904223908 | 64 | 279 | 7.0 | 15.0 | 0.00 | 0.05 | 0.05 | 38 | 1015.7 |
| 20260904222909 | 63 | 259 | 3.0 | 17.0 | 0.00 | 0.05 | 0.05 | 42 | 1015.8 |
| 20260904221007 | 64 | 265 | 10.0 | 20.0 | 0.00 | 0.05 | 0.05 | 39 | 1015.9 |
| 20260904220006 | 64 | 256 | 7.0 | 13.0 | 0.00 | 0.05 | 0.05 | 44 | 1016.0 |
| 20260904215014 | 63 | 239 | 8.0 | 20.0 | 0.00 | 0.05 | 0.05 | 43 | 1016.1 |
| 20260904214006 | 63 | 222 | 3.0 | 13.0 | 0.00 | 0.05 | 0.05 | 45 | 1016.1 |
| 20260904213007 | 63 | 246 | 8.0 | 24.0 | 0.00 | 0.05 | 0.05 | 38 | 1016.1 |
| 20260904212008 | 62 | 262 | 8.0 | 17.0 | 0.00 | 0.05 | 0.05 | 47 | 1016.2 |
| 20260904211006 | 62 | 258 | 10.0 | 19.0 | 0.00 | 0.05 | 0.05 | 47 | 1016.2 |
| 20260904210006 | 63 | 272 | 8.0 | 15.0 | 0.00 | 0.05 | 0.05 | 48 | 1016.4 |
| 20260904205006 | 62 | 263 | 5.0 | 17.0 | 0.00 | 0.05 | 0.05 | 48 | 1016.5 |
| 20260904204007 | 61 | 260 | 6.0 | 14.0 | 0.00 | 0.05 | 0.05 | 52 | 1016.5 |